Meteo pe oră la Al Jubayl

Astăzi, 28 Ianuarie, Joi

Timp Temperatura Precipitaţii Vânt Presiune Umiditate
00:00 +18°C° 0 mm 2 m/s 763 mmHg 58%
01:00 +17°C° 0 mm 2 m/s 763 mmHg 58%
02:00 +16°C° 0 mm 1 m/s 763 mmHg 59%
03:00 +16°C° 0 mm 1 m/s 762 mmHg 59%
04:00 +16°C° 0 mm 1 m/s 762 mmHg 58%
05:00 +16°C° 0 mm 2 m/s 763 mmHg 56%
06:00 +16°C° 0 mm 2 m/s 763 mmHg 55%
07:00 +17°C° 0 mm 2 m/s 763 mmHg 50%
08:00 +19°C° 0 mm 2 m/s 763 mmHg 45%
09:00 +20°C° 0 mm 2 m/s 764 mmHg 40%
10:00 +22°C° 0 mm 3 m/s 763 mmHg 34%
11:00 +25°C° 0 mm 3 m/s 763 mmHg 29%
12:00 +26°C° 0 mm 3 m/s 763 mmHg 24%
13:00 +27°C° 0 mm 3 m/s 762 mmHg 22%
14:00 +28°C° 0 mm 4 m/s 762 mmHg 21%
15:00 +28°C° 0 mm 4 m/s 761 mmHg 20%
16:00 +27°C° 0 mm 5 m/s 761 mmHg 25%
17:00 +25°C° 0 mm 5 m/s 761 mmHg 29%
18:00 +22°C° 0 mm 6 m/s 761 mmHg 34%
19:00 +22°C° 0 mm 6 m/s 761 mmHg 37%
20:00 +21°C° 0 mm 5 m/s 762 mmHg 41%
21:00 +20°C° 0 mm 5 m/s 762 mmHg 45%
22:00 +20°C° 0 mm 6 m/s 762 mmHg 48%
23:00 +19°C° 0 mm 6 m/s 762 mmHg 50%

Mâine, 29 Ianuarie, Vineri

Timp Temperatura Precipitaţii Vânt Presiune Umiditate
00:00 +19°C° 0 mm 6 m/s 761 mmHg 53%
01:00 +19°C° 0 mm 6 m/s 761 mmHg 54%
02:00 +17°C° 0 mm 6 m/s 761 mmHg 55%
03:00 +17°C° 0 mm 6 m/s 760 mmHg 56%
04:00 +17°C° 0 mm 6 m/s 760 mmHg 55%
05:00 +17°C° 0 mm 6 m/s 761 mmHg 54%
06:00 +16°C° 0 mm 6 m/s 761 mmHg 53%
07:00 +18°C° 0 mm 7 m/s 761 mmHg 46%
08:00 +20°C° 0 mm 7 m/s 761 mmHg 39%
09:00 +22°C° 0 mm 7 m/s 761 mmHg 31%
10:00 +24°C° 0 mm 7 m/s 761 mmHg 27%
11:00 +26°C° 0 mm 7 m/s 760 mmHg 23%
12:00 +28°C° 0 mm 7 m/s 760 mmHg 18%
13:00 +30°C° 0 mm 7 m/s 759 mmHg 17%
14:00 +32°C° 0 mm 7 m/s 759 mmHg 16%
15:00 +33°C° 0 mm 7 m/s 758 mmHg 15%
16:00 +30°C° 0 mm 7 m/s 758 mmHg 21%
17:00 +27°C° 0 mm 8 m/s 758 mmHg 28%
18:00 +24°C° 0 mm 8 m/s 758 mmHg 34%
19:00 +24°C° 0 mm 8 m/s 758 mmHg 35%
20:00 +23°C° 0 mm 8 m/s 759 mmHg 36%
21:00 +23°C° 0 mm 9 m/s 759 mmHg 37%
22:00 +22°C° 0 mm 8 m/s 759 mmHg 39%
23:00 +22°C° 0 mm 7 m/s 758 mmHg 42%

Poimâine, 30 Ianuarie, Sâmbătă

Timp Temperatura Precipitaţii Vânt Presiune Umiditate
00:00 +21°C° 0 mm 7 m/s 758 mmHg 44%
01:00 +21°C° 0 mm 6 m/s 758 mmHg 38%
02:00 +21°C° 0 mm 5 m/s 758 mmHg 32%
03:00 +21°C° 0 mm 4 m/s 758 mmHg 26%
04:00 +21°C° 0 mm 5 m/s 759 mmHg 32%
05:00 +21°C° 0 mm 7 m/s 759 mmHg 37%
06:00 +21°C° 0 mm 8 m/s 760 mmHg 42%
07:00 +21°C° 0 mm 9 m/s 761 mmHg 44%
08:00 +21°C° 0 mm 10 m/s 761 mmHg 45%
09:00 +21°C° 0 mm 11 m/s 762 mmHg 46%
10:00 +21°C° 0 mm 11 m/s 762 mmHg 44%
11:00 +21°C° 0 mm 11 m/s 762 mmHg 43%
12:00 +22°C° 0 mm 10 m/s 762 mmHg 41%
13:00 +21°C° 0 mm 10 m/s 762 mmHg 40%
14:00 +21°C° 0 mm 10 m/s 762 mmHg 39%
15:00 +21°C° 0 mm 10 m/s 762 mmHg 38%
16:00 +19°C° 0 mm 10 m/s 762 mmHg 40%
17:00 +18°C° 0 mm 9 m/s 763 mmHg 43%
18:00 +18°C° 0 mm 8 m/s 763 mmHg 45%
19:00 +17°C° 0 mm 8 m/s 764 mmHg 46%
20:00 +17°C° 0 mm 8 m/s 764 mmHg 47%
21:00 +17°C° 0 mm 8 m/s 765 mmHg 48%
22:00 +16°C° 0 mm 7 m/s 765 mmHg 48%
23:00 +16°C° 0 mm 7 m/s 765 mmHg 48%

31 Ianuarie, Duminică

Timp Temperatura Precipitaţii Vânt Presiune Umiditate
00:00 +16°C° 0 mm 7 m/s 764 mmHg 49%
01:00 +15°C° 0 mm 7 m/s 764 mmHg 50%
02:00 +15°C° 0 mm 7 m/s 764 mmHg 51%
03:00 +14°C° 0 mm 7 m/s 764 mmHg 52%
04:00 +14°C° 0 mm 7 m/s 764 mmHg 53%
05:00 +14°C° 0 mm 7 m/s 764 mmHg 55%
06:00 +12°C° 0 mm 7 m/s 764 mmHg 57%
07:00 +15°C° 0 mm 7 m/s 765 mmHg 53%
08:00 +16°C° 0 mm 7 m/s 765 mmHg 50%
09:00 +17°C° 0 mm 7 m/s 765 mmHg 47%
10:00 +18°C° 0 mm 7 m/s 765 mmHg 42%
11:00 +20°C° 0 mm 7 m/s 765 mmHg 37%
12:00 +21°C° 0 mm 7 m/s 765 mmHg 33%
13:00 +20°C° 0 mm 7 m/s 764 mmHg 33%
14:00 +20°C° 0 mm 7 m/s 764 mmHg 33%
15:00 +20°C° 0 mm 7 m/s 764 mmHg 34%
16:00 +18°C° 0 mm 7 m/s 764 mmHg 38%
17:00 +17°C° 0 mm 7 m/s 764 mmHg 42%
18:00 +16°C° 0 mm 7 m/s 765 mmHg 46%
19:00 +16°C° 0 mm 6 m/s 765 mmHg 47%
20:00 +15°C° 0 mm 6 m/s 765 mmHg 48%
21:00 +15°C° 0 mm 6 m/s 766 mmHg 49%
22:00 +15°C° 0 mm 6 m/s 766 mmHg 48%
23:00 +15°C° 0 mm 6 m/s 766 mmHg 48%

1 Februarie, Luni

Timp Temperatura Precipitaţii Vânt Presiune Umiditate
00:00 +14°C° 0 mm 6 m/s 765 mmHg 47%
01:00 +14°C° 0 mm 6 m/s 765 mmHg 47%
02:00 +14°C° 0 mm 6 m/s 765 mmHg 47%
03:00 +13°C° 0 mm 6 m/s 765 mmHg 48%
04:00 +13°C° 0 mm 6 m/s 765 mmHg 48%
05:00 +13°C° 0 mm 6 m/s 765 mmHg 48%
06:00 +13°C° 0 mm 6 m/s 766 mmHg 48%
07:00 +14°C° 0 mm 6 m/s 766 mmHg 45%
08:00 +16°C° 0 mm 6 m/s 766 mmHg 42%
09:00 +17°C° 0 mm 7 m/s 767 mmHg 39%
10:00 +18°C° 0 mm 7 m/s 766 mmHg 37%
11:00 +20°C° 0 mm 7 m/s 766 mmHg 35%
12:00 +21°C° 0 mm 7 m/s 766 mmHg 33%
13:00 +21°C° 0 mm 7 m/s 765 mmHg 33%
14:00 +21°C° 0 mm 7 m/s 765 mmHg 34%
15:00 +21°C° 0 mm 7 m/s 765 mmHg 34%
16:00 +20°C° 0 mm 6 m/s 765 mmHg 38%
17:00 +19°C° 0 mm 6 m/s 765 mmHg 42%
18:00 +17°C° 0 mm 5 m/s 765 mmHg 45%
19:00 +16°C° 0 mm 5 m/s 765 mmHg 47%
20:00 +16°C° 0 mm 5 m/s 766 mmHg 48%
21:00 +16°C° 0 mm 5 m/s 766 mmHg 49%
22:00 +15°C° 0 mm 5 m/s 766 mmHg 47%
23:00 +15°C° 0 mm 5 m/s 765 mmHg 46%

2 Februarie, Marţi

Timp Temperatura Precipitaţii Vânt Presiune Umiditate
00:00 +15°C° 0 mm 5 m/s 765 mmHg 44%
01:00 +15°C° 0 mm 6 m/s 765 mmHg 43%
02:00 +15°C° 0 mm 6 m/s 765 mmHg 42%
03:00 +15°C° 0 mm 6 m/s 765 mmHg 41%
04:00 +14°C° 0 mm 6 m/s 765 mmHg 43%
05:00 +14°C° 0 mm 6 m/s 765 mmHg 45%
06:00 +14°C° 0 mm 6 m/s 765 mmHg 46%
07:00 +16°C° 0 mm 6 m/s 765 mmHg 46%
08:00 +17°C° 0 mm 6 m/s 765 mmHg 45%
09:00 +20°C° 0 mm 6 m/s 766 mmHg 45%
10:00 +21°C° 0 mm 6 m/s 765 mmHg 41%
11:00 +22°C° 0 mm 6 m/s 765 mmHg 37%
12:00 +23°C° 0 mm 6 m/s 765 mmHg 33%
13:00 +23°C° 0 mm 6 m/s 764 mmHg 33%
14:00 +23°C° 0 mm 6 m/s 764 mmHg 34%
15:00 +22°C° 0 mm 5 m/s 763 mmHg 35%
16:00 +21°C° 0 mm 5 m/s 764 mmHg 41%
17:00 +20°C° 0 mm 5 m/s 764 mmHg 48%
18:00 +17°C° 0 mm 5 m/s 764 mmHg 55%
19:00 +18°C° 0 mm 4 m/s 764 mmHg 56%
20:00 +18°C° 0 mm 4 m/s 764 mmHg 57%
21:00 +17°C° 0 mm 3 m/s 764 mmHg 58%
22:00 +17°C° 0 mm 3 m/s 764 mmHg 57%
23:00 +17°C° 0 mm 3 m/s 764 mmHg 56%
Arată mai mult

Formular de consimțământ

Meteoprog și furnizorii noștri de servicii pot stoca și accesa date personale, precum cookies, identificatori de dispozitiv sau alte tehnologii similare pe dispozitivul dumneavoastră și procesa astfel de date pentru a personaliza conținutul și reclamele, dar și pentru a oferi caracteristici de social media și pentru a analiza traficul.

  • Stocarea și/sau accesarea informațiilor pe dispozitivul dumneavoastră

    Cookies, identificatori de dispozitiv sau alte informații pot fi stocate sau accesate pe dispozitiv în scopurile indicate mai sus.

  • Reclame și conținut personalizat, evaluarea reclamelor și a conținutului, informații despre audiențe și dezvoltarea produselor

    Reclamele și conținutul pot fi personalizate pe baza unui profil. Pot fi adăugate date suplimentare pentru a personaliza mai bine reclamele și conținutul. Performanța reclamelor și conținutului poate fi măsurată. Pot fi obținute informații despre utilizatorii care au văzut reclamele și conținutul. Aceste date pot fi utilizate pentru a dezvolta sau îmbunătăți experiența utilizatorilor, sistemele și software-ul.

Dând clic pe ‘Sunt de acord’, permiteți utilizarea cookie-urilor menționate, a identificatorilor de dispozitiv, balizelor web sau altor tehnologii similare. Setările pot fi modificate din browser-ul dispozitivului dumneavoastră.

În anumite scopuri, interesele legitime pot prima asupra consimțământului. Puteți citi mai multe informații în acest sens în Politica privind Confidențialitatea Datelor și Cookie.